Погода в Мениле

Россия / Удмуртская Республика     57°38′00″N   53°05′46″E
темп.,
°C
ветер,
м/с
пор.,
м/с
влажн.,
%
обл.,
%
осадки,
мм/ч
давл.,
гПа
погр.,
м
16 апреля, пт
пт1601:00+5св51183100 0.2 1024605
04:00+4св51178100 0.2 1026672
07:00+3всв5117499 0.0 1027633
10:00+6всв68545 0.0 1028779
13:00+8св56430 0.0 10281048
16:00+8св56414 0.0 10281149
19:00+6св37605 0.0 1028180
22:00+2св38754 0.0 1030154
17 апреля, сб
сб1701:00+1св25805 0.0 1030102
04:000св23815 0.0 103060
07:00+2св24705 0.0 1030158
10:00+7ссв34505 0.0 1030939
13:00+9с34465 0.0 10281384
16:00+10ссз34445 0.0 10261438
19:00+7сз23595 0.0 102538
22:00+5сз367254 0.0 1026106
18 апреля, вс
вс1801:00+3сз38805 0.0 1025169
04:00+2сз37870 0.0 1025145
07:00+3с410855 0.0 1026481
10:00+3св566745 0.0 1028883
13:00+5св56350 0.0 10291572
16:00+5всв67355 0.0 10301712
19:00+3всв48453 0.0 1031794
22:000всв4115970 0.0 1033436
19 апреля, пн
пн1901:00−1всв4106234 0.0 1034379
04:00−2всв38705 0.0 1035267
07:000в47530 0.0 1036433
10:00+3в46320 0.0 10371527
13:00+5в46280 0.0 10361726
16:00+6в45290 0.0 10351678
19:00+3в25440 0.0 1036101
22:00−1вюв23540 0.0 103751
20 апреля, вт
вт2001:00−1вюв22540 0.0 103727
04:00−1вюв22490 0.0 103822
07:00+1вюв23400 0.0 1038163
10:00+5юв22272 0.0 1037951
13:00+8юв22250 0.0 10361244
16:00+9юв22260 0.0 10341230
19:00+6ююв22430 0.0 103320
22:00+2ю22510 0.0 103420